Regional Weather Roundup
Issued by NWS

Home | Current Version | Previous Version | Text Only | Print | Product List | Glossary Off
Versions: 1 2 3 4 5 6 7 8 9 10 11 12 13 14 15 16 17 18 19 20 21 22 23 24 25 26 27 28 29 30 31 32 33 34 35 36 37 38 39 40 41 42 43 44 45 46 47 48 49 50

000
ASUS45 KPSR 051110
RWRAZ

ARIZONA HOURLY REGIONAL WEATHER ROUNDUP
NATIONAL WEATHER SERVICE PHOENIX AZ
400 AM MST THU MAY 05 2016

NOTE: FAIR INDICATES FEW OR NO CLOUDS BELOW 12,000 FEET WITH NO
SIGNIFICANT WEATHER AND/OR OBSTRUCTIONS TO VISIBILITY.

AZZ001>003-036-051200-
NORTHWEST ARIZONA

CITY           SKY/WX    TMP DP  RH WIND       PRES   REMARKS
BULLHEAD CITY  CLEAR     75  34  22 SW5       29.75R
KINGMAN        PTCLDY    58  25  28 SE8       29.88R
$$

AZZ004>008-015-016-018-051200-
NORTH CENTRAL ARIZONA

CITY           SKY/WX    TMP DP  RH WIND       PRES   REMARKS
GRAND CANYON   MOCLDY    39  30  70 NE3       30.11F
WILLIAMS       PTCLDY    46  23  39 SE12      30.17F
PRESCOTT       PTCLDY    55  27  34 S7        30.01F
FLAGSTAFF      MOCLDY    35  27  72 CALM      30.15S
PAYSON         PTCLDY    61  23  23 E6        30.07S
PAGE           PTCLDY    62  28  27 CALM      29.97S
$$

AZZ009>014-017-051200-
NORTHEAST ARIZONA

CITY           SKY/WX    TMP DP  RH WIND       PRES   REMARKS
WINSLOW        PTCLDY    56  33  42 S12       30.05S
SAINT JOHNS    CLEAR     61  24  24 S9        30.11R
WINDOW ROCK    CLEAR     39  33  79 CALM      30.22R
SHOW LOW       CLEAR     45  25  45 CALM      30.17S
$$

AZZ023-051200-
GREATER PHOENIX AREA

CITY           SKY/WX    TMP DP  RH WIND       PRES   REMARKS
PHOENIX        PTCLDY    74  30  19 E8        29.79F
BUCKEYE        PTCLDY    68  27  21 E9        29.81S
LUKE AFB       PTCLDY    66  40  38 NW3       29.79F
DEER VALLEY    PTCLDY    73  28  18 E8        29.82F
SCOTTSDALE     CLEAR     72  29  20 CALM      29.84F
MESA-GATEWAY   CLEAR     64  28  25 E7        29.85R
$$

AZZ027-028-051200-
SOUTHWEST MARICOPA COUNTY AND PINAL COUNTY

CITY           SKY/WX    TMP DP  RH WIND       PRES   REMARKS
CASA GRANDE    PTCLDY    64  23  20 CALM      29.86R
GILA BEND      FAIR      71  20  14 SE10      29.78F
$$

AZZ503-504-507>509-051200-
SOUTHEAST ARIZONA

CITY           SKY/WX    TMP DP  RH WIND       PRES   REMARKS
TUCSON         CLEAR     64  30  27 SE7       29.93S
DAVIS-MONTHAN  CLEAR     64  31  28 S3        29.92R
NOGALES        CLEAR     56  30  37 NE5       30.00R
SIERRA VISTA   CLEAR     56  28  33 SW5       30.04S
DOUGLAS        CLEAR     64  23  21 SE7       30.01R
SAFFORD        CLEAR     74  22  14 E17       29.95F
$$

AZZ020-021-025-026-031-051200-
SOUTHWEST ARIZONA

CITY           SKY/WX    TMP DP  RH WIND       PRES   REMARKS
YUMA           MOCLDY    72  48  42 SE14      29.73R
$$

CAZ031-033-041-043-047-048-061-051200-
SOUTHERN CALIFORNIA

CITY           SKY/WX    TMP DP  RH WIND       PRES   REMARKS
DOWNTOWN L.A.  CLOUDY    59  52  77 CALM      29.91R
L.A. AIRPORT   MOCLDY    59  53  80 W5        29.91S
SAN DIEGO      CLOUDY    62  51  67 CALM      29.93F
BURBANK        CLOUDY    57  49  74 S3        29.90S
ONTARIO        CLOUDY    56  51  84 W8        29.91S
RIVERSIDE      CLOUDY    57  52  83 W3        29.91S
PALM SPRINGS   CLEAR     67  46  47 W10G21    29.74R
EL CENTRO NAS  CLEAR    N/A N/A N/A W12       29.74R
IMPERIAL       CLEAR     67  46  47 W7        29.72R
BLYTHE         CLEAR     73  40  30 S9        29.74R
NEEDLES        CLEAR     76  35  22 S5        29.73S
$$

NVZ020-UTZ003-051200-
SOUTHERN NEVADA-UTAH

CITY           SKY/WX    TMP DP  RH WIND       PRES   REMARKS
LAS VEGAS      PTCLDY    72  33  24 S7        29.72S
SALT LAKE CITY CLOUDY    65  34  31 SE13      29.93R
$$

NMZ009-TXZ055-051200-
NEW MEXICO-WEST TEXAS

CITY           SKY/WX    TMP DP  RH WIND       PRES   REMARKS
ALBUQUERQUE    CLEAR     54  25  32 N5        30.19S
EL PASO        PTCLDY    66  21  18 CALM      30.10S
$$


........................KEY........................
SKY/WX - SKY CONDITION/WEATHER
TMP    - TEMPERATURE IN FAHRENHEIT
DP     - DEW POINT IN FAHRENHEIT
RH     - RELATIVE HUMIDITY IN PERCENT
WIND   - DIRECTION AND SPEED IN MILES PER HOUR (MPH)
VRB    - VARIABLE WIND DIRECTION
PRES   - MEAN SEA LEVEL PRESSURE IN INCHES OF MERCURY
         F - FALLING PRESSURE   R - RISING PRESSURE
         S - STEADY PRESSURE
VSB    - VISIBILITY IN MILES
HX     - HEAT INDEX IN FAHRENHEIT
WCI    - WIND CHILL INDEX IN FAHRENHEIT
TC     - TEMPERATURE IN CELSIUS WHICH IS ALSO KNOWN AS
         TEMPERATURE IN CENTIGRADE
AFB    - AIR FORCE BASE
         LUKE AFB IS LUKE AIR FORCE BASE
         DAVIS-MONTHAN IS DAVIS-MONTHAN AIR FORCE BASE
NAS    - NAVAL AIR STATION
         EL CENTRO NAS IS EL CENTRO NAVAL AIR STATION
N/A    - NOT AVAILABLE




USA.gov is the U.S. government's official web portal to all federal, state and local government web resources and services.